Date String (YYYY-MM-DD hh:mm:ss) UTC,Instrument flags,absolute air pressure of the measurement (hPa),sample flow rate (lpm),inlet stack bypass flow (lpm),air temperature of the measurement (°C),ambient temperature measured by the external sensor (°C),aerosol sample conditioner tube jacket temperature (°C),OPC LED temperature (°C),internal box temperature (°C),relative humidity of the measurement (%),span deviation,mass concentration of particles derived from Lorenz-Mie calculation of OPC scattering (μg/m³),mass concentration of particles derived from Lorenz-Mie calculation of OPC scattering (μg/m³),mass concentration of particles derived from Lorenz-Mie calculation of OPC scattering (μg/m³)
DateTimeUTC,F1_M11,P_M11,Q1_M11,Q2_M11,T1_M11,T2_M11,T3_M11,T4_M11,T5_M11,U1_M11,ZSPAN_M11,X2_M11,X0_M11,X1_M11
2023-12-26 00:00:00,SystemResetWarning,0826.5,5.00,000.00,018.7,017.2,000.0,027.2,020.0,10.7,0000.0,0005.11,0010.27,0004.77
2023-12-26 00:01:00,SystemResetWarning,0826.5,5.00,000.00,018.6,017.2,000.0,027.2,020.0,10.8,0000.0,0005.10,0010.33,0004.77
2023-12-26 00:02:00,SystemResetWarning,0826.5,5.00,000.00,018.6,017.2,000.0,027.2,020.0,10.8,0000.0,0005.10,0010.29,0004.78
2023-12-26 00:03:00,SystemResetWarning,0826.4,5.00,000.00,018.7,017.5,000.0,027.2,020.2,10.8,0000.0,0005.12,0010.20,0004.80
2023-12-26 00:04:00,SystemResetWarning,0826.5,5.00,000.00,018.8,018.4,000.0,027.1,020.6,10.8,0000.0,0005.11,0010.61,0004.82
2023-12-26 00:05:00,SystemResetWarning,0826.5,5.00,000.00,018.9,018.9,000.0,027.1,020.6,10.7,0000.0,0005.14,0010.56,0004.84
2023-12-26 00:06:00,SystemResetWarning,0826.4,4.99,000.00,018.9,018.7,000.0,027.1,020.1,10.7,0000.0,0005.17,0010.37,0004.86
2023-12-26 00:07:00,SystemResetWarning,0826.4,5.00,000.00,018.8,018.5,000.0,027.1,020.0,10.8,0000.0,0005.18,0010.01,0004.89
2023-12-26 00:08:00,SystemResetWarning,0826.5,5.00,000.00,018.8,018.4,000.0,027.2,020.0,10.7,0000.0,0005.24,0009.87,0004.91
2023-12-26 00:09:00,SystemResetWarning,0826.5,5.00,000.00,018.8,018.2,000.0,027.2,020.0,10.8,0000.0,0005.27,0009.78,0004.94
2023-12-26 00:10:00,SystemResetWarning,0826.5,5.00,000.00,018.8,018.1,000.0,027.2,020.0,10.8,0000.0,0005.28,0009.59,0004.95
2023-12-26 00:11:00,SystemResetWarning,0826.4,5.00,000.00,018.8,017.9,000.0,027.2,020.0,10.8,0000.0,0005.30,0008.96,0004.97
2023-12-26 00:12:00,SystemResetWarning,0826.4,5.00,000.00,018.8,017.8,000.0,027.2,020.0,10.9,0000.0,0005.34,0008.92,0005.00
2023-12-26 00:13:00,SystemResetWarning,0826.4,5.00,000.00,018.7,017.7,000.0,027.2,020.0,10.8,0000.0,0005.40,0009.05,0005.01
2023-12-26 00:14:00,SystemResetWarning,0826.4,5.00,000.00,018.7,017.7,000.0,027.2,020.0,10.8,0000.0,0005.42,0009.13,0005.03
2023-12-26 00:15:00,SystemResetWarning,0826.5,4.99,000.00,018.7,017.7,000.0,027.2,020.0,10.9,0000.0,0005.45,0008.61,0005.04
2023-12-26 00:16:00,SystemResetWarning,0826.5,5.00,000.00,018.8,017.7,000.0,027.2,020.0,10.9,0000.0,0005.47,0008.47,0005.04
2023-12-26 00:17:00,SystemResetWarning,0826.5,5.00,000.00,018.7,017.7,000.0,027.2,020.0,11.0,0000.0,0005.48,0008.53,0005.05
2023-12-26 00:18:00,SystemResetWarning,0826.6,5.00,000.00,018.8,017.7,000.0,027.2,020.0,10.9,0000.0,0005.50,0008.58,0005.05
2023-12-26 00:19:00,SystemResetWarning,0826.5,5.00,000.00,018.8,017.7,000.0,027.2,020.0,10.9,0000.0,0005.51,0008.67,0005.07
2023-12-26 00:20:00,SystemResetWarning,0826.6,5.00,000.00,018.7,017.7,000.0,027.2,020.0,10.8,0000.0,0005.53,0008.72,0005.09
2023-12-26 00:21:00,SystemResetWarning,0826.5,5.00,000.00,018.7,017.7,000.0,027.2,020.0,10.8,0000.0,0005.54,0008.73,0005.09
2023-12-26 00:22:00,SystemResetWarning,0826.5,5.00,000.00,018.7,017.7,000.0,027.2,020.0,10.9,0000.0,0005.55,0008.78,0005.09
2023-12-26 00:23:00,SystemResetWarning,0826.5,5.00,000.00,018.7,017.7,000.0,027.2,020.0,11.1,0000.0,0005.54,0008.72,0005.09
2023-12-26 00:24:00,SystemResetWarning,0826.5,5.00,000.00,018.7,017.6,000.0,027.2,020.0,11.2,0000.0,0005.50,0008.68,0005.10
2023-12-26 00:25:00,SystemResetWarning,0826.4,5.02,000.00,018.7,017.6,000.0,027.2,020.0,11.2,0000.0,0005.47,0008.67,0005.09
2023-12-26 00:26:00,SystemResetWarning,0826.4,5.01,000.00,018.7,017.6,000.0,027.2,020.0,11.2,0000.0,0005.43,0008.75,0005.08
2023-12-26 00:27:00,SystemResetWarning,0826.4,4.99,000.00,018.7,017.6,000.0,027.2,020.0,11.1,0000.0,0005.44,0008.67,0005.09
2023-12-26 00:28:00,SystemResetWarning,0826.4,5.00,000.00,018.7,017.6,000.0,027.2,020.0,11.1,0000.0,0005.46,0008.90,0005.11
2023-12-26 00:29:00,SystemResetWarning,0826.5,4.99,000.00,018.7,017.6,000.0,027.2,020.0,11.1,0000.0,0005.49,0008.98,0005.12
2023-12-26 00:30:00,SystemResetWarning,0826.5,5.00,000.00,018.7,017.6,000.0,027.2,020.0,11.1,0000.0,0005.47,0009.06,0005.12
2023-12-26 00:31:00,SystemResetWarning,0826.5,5.01,000.00,018.7,017.6,000.0,027.2,020.0,11.0,0000.0,0005.46,0009.63,0005.12
2023-12-26 00:32:00,SystemResetWarning,0826.6,5.01,000.00,018.7,017.6,000.0,027.2,020.0,10.9,0000.0,0005.47,0009.64,0005.13
2023-12-26 00:33:00,SystemResetWarning,0826.5,4.99,000.00,018.7,017.5,000.0,027.2,020.0,10.9,0000.0,0005.48,0009.63,0005.12
2023-12-26 00:34:00,SystemResetWarning,0826.5,4.99,000.00,018.7,017.5,000.0,027.2,020.0,10.8,0000.0,0005.49,0009.69,0005.11
2023-12-26 00:35:00,SystemResetWarning,0826.5,5.00,000.00,018.7,017.5,000.0,027.2,020.0,10.8,0000.0,0005.47,0009.65,0005.10
2023-12-26 00:36:00,SystemResetWarning,0826.5,5.01,000.00,018.7,017.5,000.0,027.2,020.0,10.7,0000.0,0005.51,0009.61,0005.12
2023-12-26 00:37:00,SystemResetWarning,0826.4,4.99,000.00,018.7,017.5,000.0,027.2,020.0,10.7,0000.0,0005.55,0009.60,0005.12
2023-12-26 00:38:00,SystemResetWarning,0826.4,5.00,000.00,018.7,017.5,000.0,027.2,020.0,10.7,0000.0,0005.51,0009.53,0005.11
2023-12-26 00:39:00,SystemResetWarning,0826.4,5.00,000.00,018.7,017.5,000.0,027.2,020.0,10.6,0000.0,0005.47,0009.18,0005.09
2023-12-26 00:40:00,SystemResetWarning,0826.4,5.00,000.00,018.7,017.4,000.0,027.2,020.0,10.7,0000.0,0005.44,0009.07,0005.07
2023-12-26 00:41:00,SystemResetWarning,0826.4,5.00,000.00,018.7,017.4,000.0,027.2,020.0,10.7,0000.0,0005.46,0008.88,0005.07
2023-12-26 00:42:00,SystemResetWarning,0826.4,5.00,000.00,018.7,017.4,000.0,027.2,020.0,10.7,0000.0,0005.45,0008.28,0005.07
2023-12-26 00:43:00,SystemResetWarning,0826.4,5.00,000.00,018.7,017.4,000.0,027.2,020.0,10.6,0000.0,0005.41,0008.25,0005.04
2023-12-26 00:44:00,SystemResetWarning,0826.4,4.99,000.00,018.7,017.4,000.0,027.2,020.0,10.6,0000.0,0005.39,0008.19,0005.04
2023-12-26 00:45:00,SystemResetWarning,0826.3,5.00,000.00,018.7,017.4,000.0,027.2,020.0,10.6,0000.0,0005.39,0008.14,0005.05
2023-12-26 00:46:00,SystemResetWarning,0826.4,5.01,000.00,018.6,017.4,000.0,027.2,020.0,10.6,0000.0,0005.44,0008.20,0005.06
2023-12-26 00:47:00,SystemResetWarning,0826.4,5.01,000.00,018.6,017.4,000.0,027.2,020.0,10.5,0000.0,0005.45,0008.78,0005.07
2023-12-26 00:48:00,SystemResetWarning,0826.4,4.99,000.00,018.6,017.4,000.0,027.2,020.0,10.5,0000.0,0005.44,0008.75,0005.07
2023-12-26 00:49:00,SystemResetWarning,0826.4,5.00,000.00,018.7,017.6,000.0,027.1,020.2,10.4,0000.0,0005.46,0009.00,0005.09
2023-12-26 00:50:00,SystemResetWarning,0826.3,5.00,000.00,018.8,018.2,000.0,027.1,020.6,10.4,0000.0,0005.50,0009.80,0005.11
2023-12-26 00:51:00,SystemResetWarning,0826.4,4.99,000.00,018.9,018.5,000.0,027.1,020.5,10.5,0000.0,0005.53,0009.84,0005.13
2023-12-26 00:52:00,SystemResetWarning,0826.4,4.99,000.00,018.9,018.5,000.0,027.1,020.2,10.6,0000.0,0005.51,0009.78,0005.13
2023-12-26 00:53:00,SystemResetWarning,0826.4,5.01,000.00,018.8,018.4,000.0,027.1,020.0,10.6,0000.0,0005.49,0009.73,0005.13
2023-12-26 00:54:00,SystemResetWarning,0826.3,5.01,000.00,018.8,018.3,000.0,027.1,020.0,10.7,0000.0,0005.49,0009.71,0005.14
2023-12-26 00:55:00,SystemResetWarning,0826.3,5.00,000.00,018.8,018.2,000.0,027.1,020.0,10.8,0000.0,0005.51,0009.76,0005.15
2023-12-26 00:56:00,SystemResetWarning,0826.3,4.99,000.00,018.8,018.1,000.0,027.1,020.0,10.9,0000.0,0005.51,0009.77,0005.14
2023-12-26 00:57:00,SystemResetWarning,0826.3,4.99,000.00,018.8,018.0,000.0,027.1,020.0,10.9,0000.0,0005.45,0009.70,0005.11
2023-12-26 00:58:00,SystemResetWarning,0826.3,4.99,000.00,018.8,017.9,000.0,027.1,020.0,11.0,0000.0,0005.41,0009.45,0005.09
2023-12-26 00:59:00,SystemResetWarning,0826.3,5.03,000.00,018.7,017.8,000.0,027.2,020.0,11.0,0000.0,0005.38,0009.32,0005.05
